Hourly Data Report for September 28, 2017

All times are specified in Local Standard Time (LST). Add 1 hour to adjust for Daylight Saving Time where and when it is observed.

SATURNA ISLAND CS
BRITISH COLUMBIA

48°47'02.067" N
123°02'41.082" W
24.40 m
1017101
71473
WEZ

Download Data

Hourly Data (September 2017)
Hourly Data Report for September 28, 2017
Temp Definition
°C
Dew Point Temp Definition
°C
Rel Hum Definition
%
Wind Dir Definition
10's deg

Wind Spd Definition
km/h
Visibility Definition
km
Stn Press Definition
kPa
Hmdx Definition


Wind Chill Definition


Weather Definition


TIME
00:00 15.0 12.0 82 29 3   101.31     LegendNANA
01:00 15.9 12.9 83 31 9   101.28     LegendNANA
02:00 15.7 13.0 84 30 6   101.25     LegendNANA
03:00 15.2 12.7 85 31 6   101.22     LegendNANA
04:00 14.7 12.6 87 32 6   101.20     LegendNANA
05:00 14.5 12.7 89 32 10   101.17     LegendNANA
06:00 14.1 12.5 90 4 1   101.17     LegendNANA
07:00 14.3 12.5 89 34 13   101.13     LegendNANA
08:00 15.1 12.9 87 32 9   101.14     LegendNANA
09:00 15.9 12.5 80 34 10   101.14     LegendNANA
10:00 18.1 12.7 71 31 7   101.11     LegendNANA
11:00 17.9 12.5 71 32 8   101.04     LegendNANA
12:00 18.6 12.8 69 30 10   100.98     LegendNANA
13:00 18.4 12.6 69 30 10   100.90     LegendNANA
14:00 18.4 11.8 65 30 13   100.86     LegendNANA
15:00 18.4 11.2 63 31 14   100.79     LegendNANA
16:00 18.1 11.5 65 30 12   100.74     LegendNANA
17:00 17.9 11.7 67 31 13   100.68     LegendNANA
18:00 18.0 11.2 65 32 6   100.65     LegendNANA
19:00 17.5 11.7 69 23 9   100.66     LegendNANA
20:00 17.8 11.7 68 23 20   100.66     LegendNANA
21:00 17.7 11.1 65 22 18   100.65     LegendNANA
22:00 16.3 11.1 71 22 17   100.68     LegendNANA
23:00 17.6 10.5 63 23 15   100.65     LegendNANA

Notes on Data Quality.

Legend

  • E = Estimated
  • M = Missing
  • NA = Not Available
  • ‡ = Partner data that is not subject to review by the National Climate Archives
Date modified: